SQ6RR-11 Weather Reports


Display with metric or nautical units.
time (UTC)temp
F
wind
direction
speed
MPH
gust
MPH
rain 1hr
in
rain 24hr
in
rain mn
in
humidity
%
barometer
mb
20260504140916 77 0 0.0 0.0 0.00 0.00 0.00 25 1013.7
20260504140457 79 0 0.0 0.0 0.00 0.00 0.00 24 1013.7
20260504130612 80 0 0.0 0.0 0.00 0.00 0.00 23 1013.9
20260504130139 81 0 0.0 0.0 0.00 0.00 0.00 21 1014.0
20260504110612 76 0 0.0 0.0 0.00 0.00 0.00 26 1014.6
20260504110132 75 0 0.0 0.0 0.00 0.00 0.00 26 1014.6
20260504100306 75 0 0.0 0.0 0.00 0.00 0.00 28 1015.3
20260504081532 72 0 0.0 0.0 0.00 0.00 0.00 28 1015.2
20260504081057 72 0 0.0 0.0 0.00 0.00 0.00 30 1015.2
20260504080628 71 0 0.0 0.0 0.00 0.00 0.00 28 1015.1
20260504080147 70 0 0.0 0.0 0.00 0.00 0.00 27 1015.1
20260504070327 68 0 0.0 0.0 0.00 0.00 0.00 33 1015.4
20260504060105 64 0 0.0 0.0 0.00 0.00 0.00 36 1015.4
20260504050332 60 0 0.0 0.0 0.00 0.00 0.00 39 1015.6
20260504045856 59 0 0.0 0.0 0.00 0.00 0.00 39 1015.6
20260504045432 59 0 0.0 0.0 0.00 0.00 0.00 40 1015.7
20260504045000 59 0 0.0 0.0 0.00 0.00 0.00 38 1015.7
20260504044527 59 0 0.0 0.0 0.00 0.00 0.00 39 1015.8
20260504044111 59 0 0.0 0.0 0.00 0.00 0.00 37 1015.7
20260504043629 59 0 0.0 0.0 0.00 0.00 0.00 38 1015.4
20260504043200 59 0 0.0 0.0 0.00 0.00 0.00 37 1015.2
20260504042731 59 0 0.0 0.0 0.00 0.00 0.00 38 1015.1
20260504042252 59 0 0.0 0.0 0.00 0.00 0.00 37 1014.9
20260504041827 59 0 0.0 0.0 0.00 0.00 0.00 37 1014.8
20260504041406 59 0 0.0 0.0 0.00 0.00 0.00 37 1014.7
20260504040917 59 0 0.0 0.0 0.00 0.00 0.00 37 1014.5
20260504040502 59 0 0.0 0.0 0.00 0.00 0.00 37 1014.5
20260504040057 59 0 0.0 0.0 0.00 0.00 0.00 37 1014.4
20260504035617 59 0 0.0 0.0 0.00 0.00 0.00 36 1014.3
20260504035146 59 0 0.0 0.0 0.00 0.00 0.00 37 1014.3
20260504034731 59 0 0.0 0.0 0.00 0.00 0.00 36 1014.4
20260504034314 59 0 0.0 0.0 0.00 0.00 0.00 36 1014.4
20260504033907 59 0 0.0 0.0 0.00 0.00 0.00 36 1014.4
20260504033452 59 0 0.0 0.0 0.00 0.00 0.00 36 1014.3
20260504033016 59 0 0.0 0.0 0.00 0.00 0.00 36 1014.2
20260504032547 59 0 0.0 0.0 0.00 0.00 0.00 36 1014.1
20260504032115 59 0 0.0 0.0 0.00 0.00 0.00 35 1014.2
20260504031645 59 0 0.0 0.0 0.00 0.00 0.00 35 1014.2
20260504031212 60 0 0.0 0.0 0.00 0.00 0.00 35 1014.2
20260504030752 60 0 0.0 0.0 0.00 0.00 0.00 35 1014.2
20260504030320 60 0 0.0 0.0 0.00 0.00 0.00 35 1014.2
20260504025851 60 0 0.0 0.0 0.00 0.00 0.00 35 1014.2
20260504025410 59 0 0.0 0.0 0.00 0.00 0.00 35 1014.2
20260504025005 60 0 0.0 0.0 0.00 0.00 0.00 34 1014.3
20260504024527 60 0 0.0 0.0 0.00 0.00 0.00 34 1014.2
20260504024115 60 0 0.0 0.0 0.00 0.00 0.00 34 1014.2
20260504023637 60 0 0.0 0.0 0.00 0.00 0.00 34 1014.1
20260504023157 60 0 0.0 0.0 0.00 0.00 0.00 34 1014.1
20260504022707 60 0 0.0 0.0 0.00 0.00 0.00 34 1014.1
20260504022227 60 0 0.0 0.0 0.00 0.00 0.00 33 1014.0
20260504021747 60 0 0.0 0.0 0.00 0.00 0.00 34 1014.1
20260504021325 60 0 0.0 0.0 0.00 0.00 0.00 34 1014.2
20260504020842 60 0 0.0 0.0 0.00 0.00 0.00 34 1014.2
20260504020402 60 0 0.0 0.0 0.00 0.00 0.00 34 1014.2
20260504015922 60 0 0.0 0.0 0.00 0.00 0.00 33 1014.3
20260504015450 60 0 0.0 0.0 0.00 0.00 0.00 33 1014.3
20260504015030 60 0 0.0 0.0 0.00 0.00 0.00 34 1014.3
20260504014612 60 0 0.0 0.0 0.00 0.00 0.00 33 1014.2
20260504014142 60 0 0.0 0.0 0.00 0.00 0.00 33 1014.2
20260504013657 60 0 0.0 0.0 0.00 0.00 0.00 33 1014.2
20260504013222 60 0 0.0 0.0 0.00 0.00 0.00 33 1014.3
20260504012757 60 0 0.0 0.0 0.00 0.00 0.00 33 1014.3
20260504012332 60 0 0.0 0.0 0.00 0.00 0.00 33 1014.3
20260504011912 60 0 0.0 0.0 0.00 0.00 0.00 33 1014.3
20260504011442 60 0 0.0 0.0 0.00 0.00 0.00 33 1014.4
20260504011013 60 0 0.0 0.0 0.00 0.00 0.00 33 1014.3
20260504010545 60 0 0.0 0.0 0.00 0.00 0.00 33 1014.3
20260504010117 60 0 0.0 0.0 0.00 0.00 0.00 33 1014.4
20260504005644 60 0 0.0 0.0 0.00 0.00 0.00 33 1014.4
20260504005212 60 0 0.0 0.0 0.00 0.00 0.00 32 1014.4
20260504004742 60 0 0.0 0.0 0.00 0.00 0.00 33 1014.3
20260504004306 60 0 0.0 0.0 0.00 0.00 0.00 33 1014.3
20260504003837 60 0 0.0 0.0 0.00 0.00 0.00 33 1014.3
20260504003407 60 0 0.0 0.0 0.00 0.00 0.00 33 1014.3
20260504002931 60 0 0.0 0.0 0.00 0.00 0.00 33 1014.3
20260504002502 60 0 0.0 0.0 0.00 0.00 0.00 32 1014.3
20260504002044 60 0 0.0 0.0 0.00 0.00 0.00 32 1014.4
20260504001611 60 0 0.0 0.0 0.00 0.00 0.00 32 1014.3
20260504001122 60 0 0.0 0.0 0.00 0.00 0.00 32 1014.4
20260504000652 60 0 0.0 0.0 0.00 0.00 0.00 32 1014.4
20260504000234 60 0 0.0 0.0 0.00 0.00 0.00 32 1014.5
20260503235816 60 0 0.0 0.0 0.00 0.00 0.00 32 1014.6
20260503235347 60 0 0.0 0.0 0.00 0.00 0.00 32 1014.5
20260503234937 60 0 0.0 0.0 0.00 0.00 0.00 32 1014.7
20260503234458 61 0 0.0 0.0 0.00 0.00 0.00 32 1014.7
20260503234036 61 0 0.0 0.0 0.00 0.00 0.00 32 1014.8
20260503233607 60 0 0.0 0.0 0.00 0.00 0.00 32 1014.7
20260503233145 60 0 0.0 0.0 0.00 0.00 0.00 32 1014.8
20260503232726 61 0 0.0 0.0 0.00 0.00 0.00 32 1014.8
20260503232257 61 0 0.0 0.0 0.00 0.00 0.00 32 1014.9
20260503231831 61 0 0.0 0.0 0.00 0.00 0.00 32 1014.8
20260503231352 61 0 0.0 0.0 0.00 0.00 0.00 32 1014.9
20260503230901 61 0 0.0 0.0 0.00 0.00 0.00 32 1014.8
20260503230433 61 0 0.0 0.0 0.00 0.00 0.00 32 1014.8
20260503230001 61 0 0.0 0.0 0.00 0.00 0.00 33 1014.8
20260503225513 61 0 0.0 0.0 0.00 0.00 0.00 32 1014.8
20260503225051 61 0 0.0 0.0 0.00 0.00 0.00 33 1014.8
20260503224622 61 0 0.0 0.0 0.00 0.00 0.00 33 1014.9
20260503224147 61 0 0.0 0.0 0.00 0.00 0.00 32 1014.8
20260503223712 61 0 0.0 0.0 0.00 0.00 0.00 33 1014.8
20260503223252 62 0 0.0 0.0 0.00 0.00 0.00 32 1014.8
20260503222837 61 0 0.0 0.0 0.00 0.00 0.00 33 1014.8
20260503222407 61 0 0.0 0.0 0.00 0.00 0.00 33 1014.8
20260503221946 62 0 0.0 0.0 0.00 0.00 0.00 33 1014.9
20260503221517 62 0 0.0 0.0 0.00 0.00 0.00 33 1014.9
20260503221042 62 0 0.0 0.0 0.00 0.00 0.00 33 1014.9
20260503220625 62 0 0.0 0.0 0.00 0.00 0.00 32 1014.9
20260503220151 62 0 0.0 0.0 0.00 0.00 0.00 32 1014.9
20260503215719 62 0 0.0 0.0 0.00 0.00 0.00 32 1015.0
20260503215312 62 0 0.0 0.0 0.00 0.00 0.00 32 1015.0
20260503214820 62 0 0.0 0.0 0.00 0.00 0.00 32 1015.1
20260503214405 62 0 0.0 0.0 0.00 0.00 0.00 32 1015.1
20260503213949 62 0 0.0 0.0 0.00 0.00 0.00 32 1015.1
20260503213517 63 0 0.0 0.0 0.00 0.00 0.00 32 1015.1
20260503213037 63 0 0.0 0.0 0.00 0.00 0.00 31 1015.0
20260503212617 63 0 0.0 0.0 0.00 0.00 0.00 31 1015.0
20260503212208 63 0 0.0 0.0 0.00 0.00 0.00 31 1015.1
20260503211737 63 0 0.0 0.0 0.00 0.00 0.00 31 1015.1
20260503211301 63 0 0.0 0.0 0.00 0.00 0.00 31 1014.9
20260503210837 63 0 0.0 0.0 0.00 0.00 0.00 30 1015.0
20260503210409 63 0 0.0 0.0 0.00 0.00 0.00 30 1015.0
20260503205932 64 0 0.0 0.0 0.00 0.00 0.00 30 1015.1
20260503205515 64 0 0.0 0.0 0.00 0.00 0.00 30 1015.1
20260503205056 64 0 0.0 0.0 0.00 0.00 0.00 29 1015.1
20260503204636 64 0 0.0 0.0 0.00 0.00 0.00 29 1015.1
20260503204225 64 0 0.0 0.0 0.00 0.00 0.00 29 1015.2
20260503203740 64 0 0.0 0.0 0.00 0.00 0.00 29 1015.2
20260503203305 64 0 0.0 0.0 0.00 0.00 0.00 29 1015.2
20260503202832 64 0 0.0 0.0 0.00 0.00 0.00 29 1015.2
20260503202417 64 0 0.0 0.0 0.00 0.00 0.00 29 1015.3
20260503201946 64 0 0.0 0.0 0.00 0.00 0.00 28 1015.2
20260503201507 64 0 0.0 0.0 0.00 0.00 0.00 28 1015.2
20260503201032 64 0 0.0 0.0 0.00 0.00 0.00 28 1015.1
20260503200552 64 0 0.0 0.0 0.00 0.00 0.00 28 1015.2
20260503200101 64 0 0.0 0.0 0.00 0.00 0.00 28 1015.2
20260503195656 64 0 0.0 0.0 0.00 0.00 0.00 27 1015.3
20260503195227 64 0 0.0 0.0 0.00 0.00 0.00 27 1015.4
20260503194801 64 0 0.0 0.0 0.00 0.00 0.00 27 1015.4
20260503194351 64 0 0.0 0.0 0.00 0.00 0.00 27 1015.4
20260503193927 64 0 0.0 0.0 0.00 0.00 0.00 27 1015.5
20260503193507 64 0 0.0 0.0 0.00 0.00 0.00 27 1015.4
20260503193027 64 0 0.0 0.0 0.00 0.00 0.00 28 1015.5
20260503192554 65 0 0.0 0.0 0.00 0.00 0.00 28 1015.5
20260503192126 64 0 0.0 0.0 0.00 0.00 0.00 28 1015.5
20260503191652 64 0 0.0 0.0 0.00 0.00 0.00 28 1015.5
20260503191230 65 0 0.0 0.0 0.00 0.00 0.00 28 1015.4
20260503190807 64 0 0.0 0.0 0.00 0.00 0.00 28 1015.4
20260503190336 64 0 0.0 0.0 0.00 0.00 0.00 28 1015.4
20260503185857 64 0 0.0 0.0 0.00 0.00 0.00 29 1015.4
20260503185429 64 0 0.0 0.0 0.00 0.00 0.00 29 1015.3
20260503185001 63 0 0.0 0.0 0.00 0.00 0.00 29 1015.3
20260503184532 65 0 0.0 0.0 0.00 0.00 0.00 29 1015.3
20260503184130 65 0 0.0 0.0 0.00 0.00 0.00 27 1015.3
20260503183656 66 0 0.0 0.0 0.00 0.00 0.00 28 1015.2
20260503183227 66 0 0.0 0.0 0.00 0.00 0.00 26 1015.2
20260503182756 66 0 0.0 0.0 0.00 0.00 0.00 26 1015.1
20260503182329 66 0 0.0 0.0 0.00 0.00 0.00 25 1015.1
20260503181857 67 0 0.0 0.0 0.00 0.00 0.00 25 1015.1
20260503181433 67 0 0.0 0.0 0.00 0.00 0.00 25 1015.0
20260503181011 67 0 0.0 0.0 0.00 0.00 0.00 24 1014.9
20260503180522 67 0 0.0 0.0 0.00 0.00 0.00 24 1015.0
20260503180107 67 0 0.0 0.0 0.00 0.00 0.00 24 1014.9
20260503175645 67 0 0.0 0.0 0.00 0.00 0.00 24 1014.9
20260503175204 68 0 0.0 0.0 0.00 0.00 0.00 24 1014.9
20260503174742 68 0 0.0 0.0 0.00 0.00 0.00 24 1014.8
20260503174312 68 0 0.0 0.0 0.00 0.00 0.00 23 1014.8
20260503173846 68 0 0.0 0.0 0.00 0.00 0.00 23 1014.8
20260503173400 69 0 0.0 0.0 0.00 0.00 0.00 23 1014.8
20260503172928 69 0 0.0 0.0 0.00 0.00 0.00 23 1014.9
20260503172457 69 0 0.0 0.0 0.00 0.00 0.00 23 1014.9
20260503172042 69 0 0.0 0.0 0.00 0.00 0.00 22 1014.9
20260503171602 69 0 0.0 0.0 0.00 0.00 0.00 22 1014.9
20260503171139 69 0 0.0 0.0 0.00 0.00 0.00 23 1014.8
20260503170710 69 0 0.0 0.0 0.00 0.00 0.00 23 1014.9
20260503170236 69 0 0.0 0.0 0.00 0.00 0.00 22 1014.8
20260503151001 84 0 0.0 0.0 0.00 0.00 0.00 13 1015.2
20260503150552 83 0 0.0 0.0 0.00 0.00 0.00 13 1015.3